Regional Weather Roundup
Issued by NWS Charleston, SC

Current Version | Previous Version | Text Only | Print | Product List | Glossary Off
Versions: 1 2 3 4 5 6 7 8 9 10 11 12 13 14 15 16 17 18 19 20 21 22 23 24 25 26 27 28 29 30 31 32 33 34 35 36 37 38 39 40 41 42 43 44 45 46 47 48 49 50

000
ASUS42 KCHS 012027
RWRCHS

REGIONAL WEATHER ROUNDUP
NATIONAL WEATHER SERVICE CHARLESTON SC
400 PM EDT WED JUL 01 2015

NOTE: "FAIR" INDICATES FEW OR NO CLOUDS BELOW 12,000 FEET WITH NO
SIGNIFICANT WEATHER AND/OR OBSTRUCTIONS TO VISIBILITY.

NOT ALL STATIONS ARE QUALITY CONTROLLED BY THE NATIONAL
WEATHER SERVICE. USE DATA WITH CAUTION...ESPECIALLY
DEWPOINT OBSERVATIONS.

SCZ027-030-031-034>040-042>050-012100-
...SOUTHEAST SOUTH CAROLINA...

CITY           SKY/WX    TMP DP  RH WIND       PRES   REMARKS
N CHARLESTON   PTSUNNY   87  70  56 SW12      29.99S HX  92
WATERFRONT PAR   N/A     86  72  62 W5        29.96F HX  92
MOUNT PLEASANT LGT RAIN  88  72  58 SW10      29.99R HX  94
JOHNS ISLAND   FAIR      88  72  58 SW8       29.99S HX  94
PINOPOLIS      NOT AVBL
MONCKS CORNER  FAIR      88  72  58 SW9       29.98F HX  94
SUMMERVILLE    FAIR      88  73  62 SW7       30.00S HX  96
BEAUFORT MCAS  PTSUNNY   87  72  60 W12G23    30.00F HX  93
BEAUFORT ARPT  MOCLDY    88  73  62 W10       30.00S HX  96
HILTON HEAD IS MOSUNNY   86  70  58 W7G16     30.02F HX  90
WALTERBORO     PTCLDY    86  70  58 SW12      29.99F HX  90
ALLENDALE      FAIR      86  72  62 VRB6G13   29.99S HX  92

...SOUTHERN MIDLANDS AND PEE DEE...

CITY           SKY/WX    TMP DP  RH WIND       PRES   REMARKS
GEORGETOWN     NOT AVBL
KINGSTREE      NOT AVBL
ORANGEBURG     SUNNY     87  69  54 W10       29.98F HX  91
BARNWELL       FAIR      88  72  58 W12       30.00S HX  94
AIKEN          NOT AVBL
MANNING        MOCLDY    86  64  48 SW7       29.97F
COLUMBIA       CLOUDY    88  67  49 SW10      29.96F HX  91
SUMTER         MOSUNNY   86  69  56 SW9       29.95F HX  91
FLORENCE       MOSUNNY   86  70  58 SW10      29.96F HX  90
MYRTLE BEACH   PTSUNNY   88  68  51 W9        29.98F HX  91
N MYRTLE BEACH MOSUNNY   84  74  71 SW13      29.96F HX  91

$$

GAZ063-065-086>088-099>101-113>116-118-119-134>141-150-012100-
...SOUTHEAST GEORGIA...

CITY           SKY/WX    TMP DP  RH WIND       PRES   REMARKS
SAVANNAH ARPT  PTSUNNY   89  69  51 W13       30.01S HX  93
HUNTER AAF     MOSUNNY   91  73  56 W16G23    29.99S HX  99
FORT STEWART   PTSUNNY   90  70  51 SW14G23   30.00S HX  95
STATESBORO     MOSUNNY   88  75  67 W9        30.01F HX  97
SYLVANIA       PTCLDY    89  73  58 W7G17     30.02F HX  96
CLAXTON        FAIR      88  72  58 W7G18     30.01F HX  94

...CSRA...CENTRAL AND FAR SOUTHEAST GEORGIA...

CITY           SKY/WX    TMP DP  RH WIND       PRES   REMARKS
THOMSON        MOSUNNY   87  73  63 W9        30.05S HX  94
AUGUSTA-BUSH   MOSUNNY   88  68  51 W12       29.98F HX  91
AUGUSTA-DANIEL MOSUNNY   88  68  51 W9        30.00F HX  91
SWAINSBORO     MOCLDY    88  73  62 W6        30.02F HX  96
VIDALIA        CLOUDY    88  70  55 SW12      30.02F HX  92
EASTMAN        MOCLDY    89  72  56 W7        30.04F HX  96
HAZLEHURST     FAIR      91  70  51 SW9       30.01F HX  96
ALMA           MOSUNNY   90  68  48 W15G23    30.03F HX  94
WAYCROSS       MOSUNNY   94  73  50 W12G22    30.03F HX 102
JESUP          MOCLDY    93  72  49 W9G20     30.02F HX 100
BAXLEY         FAIR      91  70  49 SW8G16    30.02F HX  97
BRUNSWICK      MOSUNNY   91  68  46 SW15G24   30.02F HX  95
SAINT SIMONS   MOSUNNY   91  68  46 SW13G22   30.02F HX  95

$$

SCZ027-028-034-036>038-045-046-048>050-GAZ119-141-012100-
...LAKE AND SUPPLEMENTAL COASTAL OBSERVATIONS...

STATION/POSITION TIME  TEMP    WIND        PRES    WAVE   SWELL
                       AIR SEA DIR/SP/G            HT/PER HT/PER/DIR
                 (UTC) (F)     (DEG/KT/KT) (MB)    (FT/S) (FT/S/D)
UPR LAKE MARION  NOT AVBL
WINYAH BAY       1945   85     230/  8     1014.0F
LAKE MURRAY      1900   83     280/ 10/ 13 1014.6F
ACE BASIN NERRS  1900   85     150/  4     1016.0F
FORT PULASKI     2000   89 85  250/ 10/ 14 1016.7F
SAPELO ISLAND    2000   91     240/ 16     1016.0F

$$

ANZ835-935-AMZ111-154-330-350-352-354-370-450-454-472-012100-
...C-MAN AND BUOY OBSERVATIONS...

STATION/POSITION TIME  TEMP    WIND        PRES    WAVE   SWELL
                       AIR SEA DIR/SP/G            HT/PER HT/PER/DIR
                 (UTC) (F)     (DEG/KT/KT) (MB)    (FT/S) (FT/S/D)
BUOY 41004       1950   80 82  230/ 16/ 17 1015.5F   5/ 8   2/ 8
BUOY 41008       1950   81 80  200/ 12/ 14 1017.0F   3/ 7   2/110/ 7
FOLLY BEACH CMAN 2000   83     220/ 12/ 17 1015.8F
CAPERS NEARSHORE 1908   82     240/ 16/ 19 1016.1F
FRIPP NEARSHORE  1900   84     240/ 12/ 14 1016.3F


STATION/POSITION TIME  TEMP    WIND        PRES    WAVE   SWELL
                       AIR SEA DIR/SP/G            HT/PER HT/PER/DIR
                 (UTC) (F)     (DEG/KT/KT) (MB)    (FT/S) (FT/S/D)
5E ST. MARYS GA  1921      78                N/A     2/ 9
FRYING PAN BUOY  1950   80 80  230/ 16/ 19 1015.7F   5/ 6   2/120/ 8
BUOY 41025       1950   81 83  230/ 19/ 21 1013.7F   5/ 6   3/170/ 7
CAPE LOOKOUT NC  2000   82     230/ 13/ 17 1014.0F
BUOY 41002       1950   81 80  220/ 17/ 21 1018.5F   7/ 6   2/260/12
BUOY 41010       1920   83 85  240/ 10/ 12 1020.5F
ST AUGUSTINE FL  2000   88 75  210/ 10/ 14 1019.1F


$$



USA.gov is the U.S. government's official web portal to all federal, state and local government web resources and services.